Flag for Poland Weather past 2 weeks in Kraków, Poland

Now
45 °F

Clear.


Feels Like: 45 °F
Forecast: 52 / 73 °F
Wind: No wind

Location: Krakow Airport

Current Time: Apr 25, 2015 at 4:42:33 AM

Latest Report: Apr 25, 2015 at 4:00 AM


Visibility: 10 mi

Pressure: 29.95 "Hg

Humidity: 87%

Dew point: 41 °F

Location of KrakówLocation

Historic Weather in Kraków — Graph

°F

Kraków temperature yesterday

Maximum temperature yesterday: 72 °F (at 2:00 PM)
Minimum temperature yesterday: 39 °F (at 6:00 AM)
Average temperature yesterday: 57 °F

Past Weeks' High & Low Weather Summary

 TemperatureHumidityPressure
High72 °F (Apr 24, 2:00 PM)93% (Apr 11, 4:00 AM)30.36 "Hg (Apr 11, 4:00 AM)
Low30 °F (Apr 10, 6:00 AM)22% (Apr 20, 7:00 PM)29.80 "Hg (Apr 17, 4:30 PM)
Average50 °F56%30.08 "Hg
* Reported Apr 10 3:00 AM — Apr 25 3:30 AM, Kraków, Weather by CustomWeather, © 2015

Note: Actual official high and low records may vary slightly from our data, if they occured in-between our weather recording intervals... More about our weather records

Advertising

Kraków weather history for previous 24 hours

 ConditionsComfort  
Time TempWeatherWind HumidityBarometerVisibility
3:30 AM
Sat, Apr 25
45 °FClear.No wind87%29.95 "Hg10 mi
3:00 AM45 °FClear.No wind87%29.95 "Hg10 mi
2:30 AM46 °FClear.No wind82%29.95 "Hg10 mi
2:00 AM46 °FClear.No wind82%29.95 "Hg10 mi
1:30 AM46 °FClear.No wind82%29.95 "Hg10 mi
1:00 AM46 °FClear.No wind82%29.95 "Hg10 mi
12:30 AM48 °FClear.No wind82%29.95 "Hg10 mi
12:00 AM46 °FClear.2 mph82%29.95 "Hg10 mi
11:30 PM
Fri, Apr 24
48 °FClear.No wind76%29.95 "Hg10 mi
11:00 PM50 °FClear.1 mph76%29.95 "Hg10 mi
10:30 PM52 °FClear.1 mph72%29.95 "Hg10 mi
10:00 PM54 °FClear.2 mph67%29.95 "Hg10 mi
9:30 PM55 °FClear.1 mph63%29.95 "Hg10 mi
9:00 PM59 °FPassing clouds.3 mph55%29.95 "HgN/A
8:30 PM59 °FSunny.3 mph55%29.95 "Hg10 mi
8:00 PM61 °FPassing clouds.10 mph48%29.92 "HgN/A
7:30 PM63 °FScattered clouds.20 mph45%29.92 "HgN/A
7:00 PM64 °FScattered clouds.10 mph43%29.92 "HgN/A
6:30 PM68 °FPassing clouds.12 mph35%29.89 "HgN/A
6:00 PM68 °FPassing clouds.14 mph35%29.89 "HgN/A
5:30 PM70 °FScattered clouds.13 mph31%29.89 "HgN/A
5:00 PM70 °FScattered clouds.16 mph31%29.89 "HgN/A
4:30 PM70 °FScattered clouds.14 mph31%29.89 "HgN/A
4:00 PM70 °FPartly sunny.8 mph31%29.89 "HgN/A
3:30 PM70 °FPartly sunny.5 mph31%29.89 "HgN/A
3:00 PM70 °FScattered clouds.7 mph31%29.89 "HgN/A
2:30 PM72 °FPassing clouds.6 mph27%29.92 "HgN/A
2:00 PM72 °FPassing clouds.10 mph27%29.92 "HgN/A
1:30 PM70 °FPassing clouds.7 mph31%29.92 "HgN/A
1:00 PM70 °FSunny.7 mph29%29.92 "Hg10 mi
12:30 PM68 °FPassing clouds.12 mph26%29.95 "HgN/A
12:00 PM68 °FPassing clouds.9 mph28%29.95 "HgN/A
11:30 AM66 °FPassing clouds.5 mph30%29.95 "HgN/A
11:00 AM66 °FSunny.3 mph40%29.95 "Hg10 mi
10:30 AM64 °FSunny.No wind43%29.98 "Hg10 mi
10:00 AM59 °FSunny.No wind48%29.98 "Hg10 mi
9:30 AM57 °FSunny.1 mph55%29.98 "Hg10 mi
9:00 AM54 °FSunny.No wind63%29.98 "Hg10 mi
8:30 AM50 °FSunny.1 mph67%29.98 "Hg10 mi
8:00 AM48 °FSunny.No wind71%29.98 "Hg10 mi
7:30 AM46 °FSunny.1 mph76%29.98 "Hg10 mi
7:00 AM45 °FSunny.2 mph81%29.95 "Hg10 mi
6:30 AM43 °FSunny.No wind81%29.98 "Hg10 mi
6:00 AM39 °FClear.1 mph87%29.95 "Hg10 mi
5:00 AM41 °FClear.No wind81%29.95 "Hg10 mi
4:30 AM41 °FClear.No wind81%29.95 "Hg10 mi
4:00 AM41 °FClear.No wind87%29.95 "Hg10 mi
Weather by CustomWeather, © 2015

See weather overviewHow to use our weather pages